Regional Weather Roundup
Issued by NWS

Home | Current Version | Previous Version | Text Only | Print | Product List | Glossary On
Versions: 1 2 3 4 5 6 7 8 9 10 11 12 13 14 15 16 17 18 19 20 21 22 23 24 25 26 27 28 29 30 31 32 33 34 35 36 37 38 39 40 41 42 43 44 45 46 47 48 49 50
000
ASUS43 KMPX 031010
RWRMN
WEATHER ROUNDUP FOR MINNESOTA
NATIONAL WEATHER SERVICE TWIN CITIES/CHANHASSEN MN
500 AM CDT MON AUG 03 2015


NOTE: "FAIR" INDICATES FEW OR NO CLOUDS BELOW 12,000 FEET WITH NO
SIGNIFICANT WEATHER AND/OR OBSTRUCTIONS TO VISIBILITY. N/A MEANS
CURRENT SKY AND/OR WEATHER CONDITIONS ARE NOT AVAILABLE.

MNZ060>063-068>070-031100-
   Twin Cities Metro

CITY           SKY/WX    TMP DP  RH WIND       PRES   REMARKS
TWIN CITIES    CLEAR     62  53  72 CALM      29.87S
ST PAUL        CLEAR     61  51  70 W6        29.87R
CRYSTAL        CLEAR     62  52  69 W7        29.85S
BLAINE         CLEAR     59  52  77 CALM      29.86S
LAKEVILLE      CLEAR     54  52  94 W3        29.88R
EDEN PRAIRIE   CLEAR     57  53  86 SW3       29.87S
SOUTH ST PAUL  CLEAR     61  52  71 CALM      29.87R
LAKE ELMO      FAIR      55  52  88 CALM      29.87S
$$
MNZ001>005-007-008-013>017-022>024-027-028-031100-
   Northwest Minnesota

CITY           SKY/WX    TMP DP  RH WIND       PRES   REMARKS
BEMIDJI        CLEAR     53  46  78 W9        29.86R
HALLOCK        CLEAR     50  46  87 CALM      29.88R
ROSEAU         CLEAR     55  48  76 W7        29.85R
WARROAD        CLOUDY    55  52  88 W6        29.83F
THIEF RVR FALL CLEAR     52  46  82 W5        29.89R
CROOKSTON      CLEAR     48  46  93 CALM      29.90R
FOSSTON        CLEAR     45  41  87 CALM      29.90R
DETROIT LAKES  CLEAR     54  50  87 NW5       29.92R
MOORHEAD       CLEAR     55  48  76 CALM      29.92R
PARK RAPIDS    CLEAR     50  47  89 NW6       29.89R
MAHNOMEN       FAIR      49  48  93 CALM      29.90R
$$
MNZ006-009>011-018-025>026-031100-
   North Central Minnesota

CITY           SKY/WX    TMP DP  RH WIND       PRES   REMARKS
BAUDETTE       CLOUDY    57  50  77 W8        29.81R
FLAG ISLAND    CLOUDY    57  54  88 W18       29.80S
INTL FALLS     CLOUDY    57  50  77 W7        29.77R
WASKISH        PTCLDY    57  52  82 W15G21    29.83R
BIG FORK       CLEAR     55  46  71 W3        29.82R
LONGVILLE      MOCLDY    54  46  76 W5        29.85R
GRAND RAPIDS   PTCLDY    57  46  67 W9        29.83R
CRANE LAKE     CLOUDY    57  50  77 W2        29.77R
ORR            CLOUDY    57  46  67 W3        29.76R
COOK           CLOUDY    55  46  71 W6        29.79R
WALKER         FAIR      54  46  74 W7        29.86S
$$
MNZ012-019>021-037-031100-
   Northeast Minnesota

CITY           SKY/WX    TMP DP  RH WIND       PRES   REMARKS
DULUTH         CLOUDY    56  46  69 W10       29.79R
ELY            CLOUDY    54  48  82 W5        29.75R
HIBBING        CLOUDY    58  46  64 W9        29.79S
EVELETH        MOCLDY    57  45  62 W8        29.79S
DULUTH HARBOR  CLEAR     57  50  77 S9        29.78S
TWO HARBORS    CLEAR     55  48  76 W6        29.74S
SILVER BAY     CLEAR     52  46  82 CALM      29.73S
GRAND MARAIS     N/A     48  43  82 CALM      29.70S
G MARAIS ARPRT   N/A     54  46  76 CALM      29.72S
$$
MNZ029>031-032-039>041-046>048-054>057-064-031100-
   West Central Minnesota

CITY           SKY/WX    TMP DP  RH WIND       PRES   REMARKS
FERGUS FALLS   CLEAR     50  48  93 NW3       29.92R
WHEATON        CLEAR     54  52  94 W3        29.94R
MORRIS         CLEAR     54  50  87 W7        29.92R
ALEXANDRIA     CLEAR     57  51  80 W6        29.92S
ELBOW LAKE     FAIR      53  51  93 NW7       29.91S
WADENA         CLEAR     52  46  82 W3        29.89S
GLENWOOD       CLEAR     54  48  82 W7        29.92S
APPLETON       CLEAR     54  50  87 W6        29.92R
BENSON         CLEAR     50  48  93 CALM      29.92S
ORTONVILLE     CLEAR     59  52  77 NW6       29.93R
MADISON        CLEAR     54  50  87 W3        29.93R
WILLMAR        FAIR      54  50  87 W3        29.93R
$$
MNZ033>034-036-042>043-049>051-058-059-031100-
   Central Minnesota

CITY           SKY/WX    TMP DP  RH WIND       PRES   REMARKS
ST CLOUD       CLEAR     55  51  86 NW3       29.88R
SAUK CENTRE    FAIR      53  49  88 NW3       29.91R
PAYNESVILLE    CLEAR     49  48  97 SW6       29.91S
AITKIN         CLEAR     55  48  76 SW6       29.83S
PINE RIVER     CLEAR     54  48  82 CALM      29.90S
BRAINERD       CLEAR     48  47  96 S3        29.87R
STAPLES        CLEAR     50  48  93 W5        29.89S
LONG PRAIRIE   FAIR      54  50  87 W3        29.91R
LITTLE FALLS     N/A     46  45  93 CALM      29.89R
LITCHFIELD     CLEAR     63  55  77 W6        29.90S
BUFFALO        CLEAR     59  53  78 W6        29.89R
MAPLE LAKE     CLEAR     59  54  82 W5        29.89S
$$
MNZ037-044-045-052-053-031100-
   East Central Minnesota

CITY           SKY/WX    TMP DP  RH WIND       PRES   REMARKS
PRINCETON      CLEAR     52  48  87 CALM      29.87S
MORA           CLEAR     54  46  76 W3        29.87S
CAMBRIDGE      CLEAR     57  46  67 CALM      29.85S
RUSH CITY      MOCLDY    53  49  84 CALM      29.86R
MOOSE LAKE     PTCLDY    52  46  82 W6        29.81S
HINCKLEY       FAIR      54  50  87 W6        29.84S
CLOQUET        MOCLDY    55  46  71 W8        29.81R
MCGREGOR       MOCLDY    55  46  71 W6        29.84S
$$
MNZ071>073-080-081-089-090-097-098-031100-
   Southwest Minnesota

CITY           SKY/WX    TMP DP  RH WIND       PRES   REMARKS
MONTEVIDEO     CLEAR     55  52  88 W7        29.94R
GRANITE FALLS  CLEAR     52  51  96 SW6       29.94R
CANBY          CLEAR     55  51  86 W5        29.94S
MARSHALL       CLEAR     54  46  76 SW5       29.94R
REDWOOD FALLS  CLEAR     57  53  86 W8        29.91S
OLIVIA         CLEAR     52  48  87 W5        29.91R
PIPESTONE      CLEAR     59  54  82 CALM      29.95F
WINDOM         CLEAR     54  52  94 CALM      29.94S
WORTHINGTON    CLEAR     54  48  82 W5        29.95S
JACKSON        CLEAR     54  52  94 CALM      29.94S
TRACY          CLEAR     57  54  88 SW6       29.94S
SLAYTON        CLEAR     54  53  95 CALM      29.95F
$$
MNZ065>067-074>077-082>085-091>093-031100-
   South Central Minnesota

CITY           SKY/WX    TMP DP  RH WIND       PRES   REMARKS
MANKATO        CLEAR     57  52  82 SW7       29.90R
NEW ULM        CLEAR     52  52 100 W6        29.91R
ST JAMES         N/A     55  52  88 W5        29.92F
FAIRMONT       CLEAR     57  48  72 N5        29.92R
GLENCOE        CLEAR     58  55  88 W5        29.89S
FARIBAULT      CLEAR     54  52  94 CALM      29.89S
OWATONNA       CLEAR     54  50  87 SW7       29.90R
WASECA         CLEAR     52  50  93 SW5       29.92R
ALBERT LEA     CLEAR     55  54  94 CALM      29.91R
$$
MNZ078>079-086>088-094>096-031100-
   Southeast Minnesota

CITY           SKY/WX    TMP DP  RH WIND       PRES   REMARKS
ROCHESTER      CLEAR     53  50  89 W8        29.90R
RED WING       CLEAR     54  52  94 CALM      29.86S
STANTON        CLEAR     54  50  87 CALM      29.86S
DODGE CENTER   CLEAR     52  48  87 W3        29.90R
WINONA         CLEAR     59  54  82 CALM      29.86S
AUSTIN         CLEAR     57  54  88 CALM      29.90S
PRESTON        CLEAR     55  51  87 NW3       29.89S
$$
ABBREVIATIONS USED IN REMARKS
   TC - TEMPERATURES IN CELSIUS
  WCI - WIND CHILL INDEX
   HX - HEAT INDEX
  VSB - VISIBILITY
$$



USA.gov is the U.S. government's official web portal to all federal, state and local government web resources and services.